TimeCDT,TemperatureF,Dew PointF,Humidity,Sea Level PressureIn,VisibilityMPH,Wind Direction,Wind SpeedMPH,Gust SpeedMPH,PrecipitationIn,Events,Conditions,WindDirDegrees,DateUTC
12:15 AM,33.8,32.0,93,29.94,10.0,Calm,Calm,-,N/A,,Clear,0,2013-10-17 05:15:00
12:35 AM,33.8,32.0,93,29.94,10.0,Calm,Calm,-,N/A,,Clear,0,2013-10-17 05:35:00
12:55 AM,32.0,32.0,100,29.94,10.0,Calm,Calm,-,N/A,,Clear,0,2013-10-17 05:55:00
1:15 AM,33.8,32.0,93,29.94,10.0,Calm,Calm,-,N/A,,Clear,0,2013-10-17 06:15:00
1:35 AM,33.8,32.0,93,29.93,10.0,Calm,Calm,-,N/A,,Clear,0,2013-10-17 06:35:00
1:55 AM,33.8,32.0,93,29.93,10.0,Calm,Calm,-,N/A,,Clear,0,2013-10-17 06:55:00
2:15 AM,33.8,32.0,93,29.92,10.0,Calm,Calm,-,N/A,,Clear,0,2013-10-17 07:15:00
2:35 AM,32.0,32.0,100,29.92,10.0,Calm,Calm,-,N/A,,Clear,0,2013-10-17 07:35:00
2:55 AM,33.8,32.0,93,29.91,10.0,Calm,Calm,-,N/A,,Clear,0,2013-10-17 07:55:00
3:15 AM,33.8,32.0,93,29.91,10.0,Calm,Calm,-,N/A,,Clear,0,2013-10-17 08:15:00
3:35 AM,32.0,32.0,100,29.90,10.0,Calm,Calm,-,N/A,,Clear,0,2013-10-17 08:35:00
3:55 AM,32.0,32.0,100,29.89,10.0,Calm,Calm,-,N/A,,Clear,0,2013-10-17 08:55:00
4:15 AM,32.0,32.0,100,29.89,10.0,Calm,Calm,-,N/A,,Clear,0,2013-10-17 09:15:00
4:35 AM,32.0,32.0,100,29.88,10.0,Calm,Calm,-,N/A,,Clear,0,2013-10-17 09:35:00
4:55 AM,32.0,32.0,100,29.88,10.0,Calm,Calm,-,N/A,,Clear,0,2013-10-17 09:55:00
5:15 AM,32.0,30.2,93,29.88,10.0,Calm,Calm,-,N/A,,Clear,0,2013-10-17 10:15:00
5:35 AM,32.0,32.0,100,29.88,10.0,Calm,Calm,-,N/A,,Clear,0,2013-10-17 10:35:00
5:55 AM,32.0,30.2,93,29.88,10.0,Calm,Calm,-,N/A,,Clear,0,2013-10-17 10:55:00
6:15 AM,30.2,30.2,100,29.88,10.0,Calm,Calm,-,N/A,,Clear,0,2013-10-17 11:15:00
6:35 AM,30.2,30.2,100,29.87,10.0,Calm,Calm,-,N/A,,Clear,0,2013-10-17 11:35:00
6:55 AM,30.2,28.4,93,29.87,10.0,Calm,Calm,-,N/A,,Clear,0,2013-10-17 11:55:00
7:15 AM,30.2,28.4,93,29.87,10.0,ESE,3.5,-,N/A,,Clear,110,2013-10-17 12:15:00
7:35 AM,30.2,30.2,100,29.87,10.0,Calm,Calm,-,N/A,,Clear,0,2013-10-17 12:35:00
7:55 AM,30.2,30.2,100,29.86,10.0,Calm,Calm,-,N/A,,Clear,0,2013-10-17 12:55:00
8:15 AM,30.2,28.4,93,29.87,10.0,Calm,Calm,-,N/A,,Clear,0,2013-10-17 13:15:00
8:35 AM,30.2,30.2,100,29.87,9.0,Calm,Calm,-,N/A,,Clear,0,2013-10-17 13:35:00
8:55 AM,32.0,30.2,93,29.88,10.0,Calm,Calm,-,N/A,,Clear,0,2013-10-17 13:55:00
9:15 AM,35.6,33.8,93,29.88,10.0,Calm,Calm,-,N/A,,Clear,0,2013-10-17 14:15:00
9:35 AM,39.2,35.6,87,29.88,10.0,Calm,Calm,-,N/A,,Clear,0,2013-10-17 14:35:00
9:55 AM,41.0,37.4,87,29.88,10.0,West,3.5,-,N/A,,Clear,260,2013-10-17 14:55:00
10:15 AM,42.8,37.4,81,29.88,10.0,WSW,3.5,-,N/A,,Clear,240,2013-10-17 15:15:00
10:35 AM,44.6,35.6,71,29.89,10.0,SW,8.1,-,N/A,,Clear,230,2013-10-17 15:35:00
10:55 AM,46.4,37.4,71,29.88,10.0,SW,5.8,-,N/A,,Clear,230,2013-10-17 15:55:00
11:15 AM,48.2,37.4,66,29.88,10.0,WSW,4.6,-,N/A,,Clear,240,2013-10-17 16:15:00
11:35 AM,50.0,37.4,62,29.87,10.0,SW,5.8,-,N/A,,Clear,230,2013-10-17 16:35:00
11:55 AM,51.8,37.4,58,29.87,10.0,Calm,Calm,-,N/A,,Clear,0,2013-10-17 16:55:00
12:15 PM,53.6,37.4,54,29.87,10.0,Variable,4.6,-,N/A,,Clear,0,2013-10-17 17:15:00
12:35 PM,57.2,39.2,51,29.86,10.0,SW,8.1,-,N/A,,Clear,230,2013-10-17 17:35:00
12:55 PM,57.2,37.4,48,29.86,10.0,Variable,5.8,-,N/A,,Clear,0,2013-10-17 17:55:00
1:15 PM,59.0,33.8,39,29.85,10.0,West,8.1,-,N/A,,Clear,260,2013-10-17 18:15:00
1:35 PM,57.2,32.0,38,29.85,10.0,WNW,12.7,-,N/A,,Clear,290,2013-10-17 18:35:00
1:55 PM,57.2,33.8,41,29.85,10.0,West,12.7,18.4,N/A,,Clear,280,2013-10-17 18:55:00
2:15 PM,57.2,35.6,44,29.86,10.0,West,13.8,24.2,N/A,,Clear,270,2013-10-17 19:15:00
2:35 PM,57.2,37.4,48,29.86,10.0,NW,16.1,25.3,N/A,,Clear,310,2013-10-17 19:35:00
2:55 PM,59.0,37.4,45,29.85,10.0,West,16.1,25.3,N/A,,Clear,280,2013-10-17 19:55:00
3:15 PM,59.0,37.4,45,29.85,10.0,WNW,17.3,23.0,N/A,,Partly Cloudy,300,2013-10-17 20:15:00
3:35 PM,59.0,37.4,45,29.85,10.0,WNW,16.1,26.5,N/A,,Partly Cloudy,290,2013-10-17 20:35:00
3:55 PM,57.2,39.2,51,29.85,10.0,WNW,15.0,24.2,N/A,,Partly Cloudy,300,2013-10-17 20:55:00
4:15 PM,57.2,39.2,51,29.86,10.0,WNW,15.0,20.7,N/A,,Scattered Clouds,290,2013-10-17 21:15:00
4:35 PM,55.4,41.0,58,29.86,10.0,WNW,18.4,27.6,N/A,,Partly Cloudy,290,2013-10-17 21:35:00
4:55 PM,53.6,41.0,62,29.88,10.0,WNW,19.6,26.5,N/A,,Scattered Clouds,300,2013-10-17 21:55:00
5:15 PM,51.8,41.0,67,29.89,10.0,NW,18.4,26.5,N/A,,Mostly Cloudy,310,2013-10-17 22:15:00
5:35 PM,50.0,41.0,71,29.89,10.0,WNW,18.4,-,N/A,,Overcast,300,2013-10-17 22:35:00
5:55 PM,50.0,41.0,71,29.90,10.0,NW,15.0,26.5,N/A,,Overcast,310,2013-10-17 22:55:00
6:15 PM,48.2,41.0,76,29.91,10.0,WNW,15.0,23.0,N/A,,Overcast,300,2013-10-17 23:15:00
6:35 PM,48.2,41.0,76,29.91,10.0,WNW,11.5,18.4,N/A,,Overcast,290,2013-10-17 23:35:00
6:55 PM,48.2,41.0,76,29.92,10.0,WNW,11.5,19.6,N/A,,Overcast,300,2013-10-17 23:55:00
7:15 PM,46.4,41.0,81,29.93,10.0,WNW,15.0,24.2,N/A,,Overcast,300,2013-10-18 00:15:00
7:35 PM,46.4,39.2,76,29.94,10.0,NW,11.5,21.9,N/A,,Overcast,310,2013-10-18 00:35:00
7:55 PM,44.6,41.0,87,29.96,9.0,NW,16.1,-,N/A,,Overcast,310,2013-10-18 00:55:00
8:15 PM,42.8,41.0,93,29.97,6.0,NW,17.3,-,N/A,,Overcast,310,2013-10-18 01:15:00
8:35 PM,42.8,41.0,93,29.97,7.0,NW,11.5,19.6,N/A,,Overcast,310,2013-10-18 01:35:00
8:55 PM,42.8,39.2,87,29.98,10.0,NW,16.1,-,N/A,,Overcast,310,2013-10-18 01:55:00
9:15 PM,42.8,37.4,81,29.99,10.0,NW,11.5,-,N/A,,Overcast,320,2013-10-18 02:15:00
9:35 PM,42.8,37.4,81,30.00,10.0,NW,10.4,-,N/A,,Overcast,320,2013-10-18 02:35:00
9:55 PM,42.8,37.4,81,30.00,10.0,NW,8.1,15.0,N/A,,Overcast,310,2013-10-18 02:55:00
10:15 PM,42.8,37.4,81,30.00,10.0,WNW,10.4,-,N/A,,Overcast,300,2013-10-18 03:15:00
10:35 PM,42.8,37.4,81,30.01,10.0,NW,9.2,-,N/A,,Overcast,310,2013-10-18 03:35:00
10:55 PM,42.8,37.4,81,30.01,10.0,WNW,10.4,-,N/A,,Overcast,300,2013-10-18 03:55:00
11:15 PM,42.8,37.4,81,30.01,10.0,WNW,10.4,-,N/A,,Overcast,290,2013-10-18 04:15:00
11:35 PM,42.8,37.4,81,30.01,10.0,NW,11.5,-,N/A,,Overcast,310,2013-10-18 04:35:00
11:55 PM,42.8,37.4,81,30.01,10.0,NW,8.1,15.0,N/A,,Overcast,310,2013-10-18 04:55:00